www.pogodaiklimat.ru

Погода и климат >> Архив погоды >> Россия >> Калмыкия >> Малые Дербеты


ПОГОДА в Малых Дербетах

  • Прогноз погоды в Малых Дербетах
  • Монитор погоды в Малых Дербетах
  • Климат города

АРХИВ ПОГОДЫ в Малых Дербетах

Время (UTC), дата Ветер
(напр.,м/с)
 
Видим.   Явления Облачность Т
(С)
Тd
(С)
f
(%)
Тe
(С)
Тes
(С)
Комфортность P
(гПа)
Po
(гПа)
Тmin
(С)
Tmax
(С)
R
(мм)
R24
(мм)
S
(см)
09 10.12 ЮВ 3 20 км 10/0
[Ac und]
+3.6 -0.7 73 0 +1 1022.4 1021.3
12 10.12 ЮВ 4 20 км ясно +4.4 +0.4 75 0 +1 1021.6 1020.4
15 10.12 ЮВ 4 200 м туман ?/? +0.6 +0.6 100 -5 -5 1022.0 1020.9 +5.0
18 10.12 ЮВ 1 200 м туман ?/? -1.1 -1.1 100 -3 -3 1020.9 1019.8
21 10.12 ЮВ 2 1000 м дымка {туман} 10/10 300 м
[St]
+0.2 -0.2 97 -4 -4 1021.2 1020.0
00 11.12 ЮВ 3 500 м туман ?/? +0.6 +0.6 100 -4 -4 1020.1 1019.0
03 11.12 Ю 3 1000 м дымка {туман} 10/10 330 м
[St]
+1.9 +1.4 96 -3 -3 1021.2 1020.1 -2.0
06 11.12 ЮВ 3 200 м туман ?/? +2.1 +2.1 100 -2 -2 1022.8 1021.6
09 11.12 ЮВ 2 4000 м дымка {туман} 10/3 600 м
[Sc diur, vesp As trans]
+4.1 +3.4 95 +1 +2 1023.7 1022.6
12 11.12 ЮЗ 4 20 км {ливн. осадки, туман} 6/3 600 м
[Cu med, cong Ci fib]
+4.8 -0.8 67 +1 +1 1024.7 1023.5
15 11.12 Ю 2 20 км 3/0
[Ci fib]
-0.5 -2.4 87 -4 -4 1026.6 1025.5 +4.9 0.0
18 11.12 ЮЗ 2 20 км 4/0
[Ci fib]
+0.3 -2.7 80 -3 -3 1026.7 1025.6
21 11.12 ЮЗ 3 20 км 10/0
[Ci fib]
+1.1 -2.3 78 -3 -3 1027.5 1026.3
00 12.12 Ю 1 20 км 9/0
[Ac As]
+0.3 -2.0 85 -2 -2 1027.3 1026.1
03 12.12 Ю 2 20 км 10/0
[Ac As Ci fib]
-0.5 -1.9 90 -4 -4 1026.7 1025.5 -1.3
06 12.12 Ю 3 20 км 9/9 500 м
[Sc]
+0.6 -0.9 90 -4 -4 1026.5 1025.3
09 12.12 ЮВ 2 4000 м слабый ливневой дождь 9/4 600 м
[Cb cap Ac As]
+2.2 +1.1 92 -1 -1 1025.7 1024.6
12 12.12 ЮВ 3 4000 м слабый дождь 10/0 450 м
[As op]
+3.4 +2.4 93 -1 -1 1024.7 1023.6
15 12.12 ЮВ 3 4000 м слабый дождь 10/0 480 м
[As op]
+4.0 +3.0 93 0 0 1025.1 1024.0 +4.0 2
18 12.12 ЮВ 3 4000 м слабый дождь 10/0 450 м
[As op]
+4.4 +3.3 93 +1 +1 1024.5 1023.3
21 12.12 ЮВ 3 10 км слабый дождь 10/0 480 м
[As op]
+4.6 +2.6 87 +1 +1 1023.6 1022.5
00 13.12 ЮВ 2 20 км {дождь} 9/9 500 м
[Sc]
+4.5 +2.6 87 +2 +2 1023.1 1021.9
03 13.12 ЮВ 3 20 км 10/0
[Ac und]
+3.7 +2.0 89 -0 -0 1022.6 1021.5 +3.7 2
06 13.12 ЮВ 3 20 км 10/0
[Ac und]
+3.4 +2.2 92 -1 -1 1023.4 1022.3 +2.6
09 13.12 ЮВ 4 20 км 10/0
[Ac und]
+6.4 +3.7 83 +3 +3 1023.0 1021.9
12 13.12 ЮВ 4 20 км 9/0
[Ac As]
+7.7 +4.5 80 +4 +4 1022.4 1021.3
15 13.12 ЮВ 5
{11}
20 км 9/0
[Ac As]
+6.6 +4.6 87 +2 +2 1023.0 1021.9 +7.7
18 13.12 ЮВ 4
{12}
20 км 10/0
[Cs]
+5.6 +3.8 88 +2 +2 1023.9 1022.8
21 13.12 ЮВ 5
{12}
20 км 10/10 480 м
[St]
+5.2 +3.6 89 +1 +1 1024.0 1022.8
00 14.12 ЮВ 3 20 км 10/0
[Ci fib]
+2.5 +1.5 93 -2 -2 1024.4 1023.2
03 14.12 ЮВ 5 20 км ясно +4.5 +2.3 86 -0 -0 1024.1 1023.0 +2.3
06 14.12 В 7-11
{11}
20 км 9/0
[Ac As]
+3.9 +1.8 86 -2 -2 1024.6 1023.5
09 14.12 ЮВ 6-11
{14}
20 км 9/9 500 м
[Sc]
+4.0 +1.6 84 -1 -1 1024.1 1023.0
12 14.12 В 5-10
{14}
20 км 9/9 570 м
[Sc]
+3.5 +0.6 81 -2 -2 1023.1 1022.0
15 14.12 В 6 20 км 9/9 500 м
[Sc]
+2.3 -0.8 80 -4 -4 1023.8 1022.6 +4.6
18 14.12 В 6
{12}
20 км 9/9 540 м
[Sc]
+0.3 -2.3 83 -6 -6 1023.6 1022.4
21 14.12 В 6-11
{13}
20 км 9/9 500 м
[Sc]
-1.3 -3.5 85 -8 -8 1023.7 1022.5
00 15.12 В 5
{11}
20 км 9/9 500 м
[Sc]
-1.5 -3.2 88 -8 -8 1023.7 1022.6
03 15.12 ЮВ 4
{12}
20 км 10/10 450 м
[St]
-1.1 -3.0 87 -7 -7 1023.9 1022.7 -1.7
06 15.12 В 6 20 км 10/10 450 м
[St]
-0.6 -2.1 90 -7 -7 1023.3 1022.2
09 15.12 ЮВ 5
{12}
20 км 10/10 480 м
[St]
0.0 -1.8 88 -6 -6 1023.9 1022.8
12 15.12 В 4 10 км слабая морось 10/10 450 м
[St]
+0.4 -0.9 91 -5 -5 1023.1 1021.9
15 15.12 В 4 4000 м слабый дождь {морось} 10/0 450 м
[As op]
+0.9 -0.4 91 -4 -4 1024.1 1023.0 +1.0 0.0
18 15.12 ЮВ 5 4000 м слабый дождь {морось} 10/0 450 м
[As op]
+1.1 +0.3 94 -5 -5 1024.2 1023.0
21 15.12 ЮВ 4 20 км {дождь} 9/9 500 м
[Sc]
+0.6 -1.0 89 -5 -5 1024.6 1023.4
00 16.12 В 3 20 км {дождь} 9/9 500 м
[Sc]
+0.1 -1.5 89 -5 -5 1025.3 1024.1
03 16.12 ЮВ 3 20 км 10/10 480 м
[St]
+0.1 -1.2 91 -5 -5 1026.1 1024.9 0.0 0.3
06 16.12 ЮВ 4 20 км 10/10 400 м
[St]
+0.2 -0.9 92 -5 -5 1026.6 1025.4
09 16.12 ЮВ 3 4000 м дымка 10/10 400 м
[St]
+1.6 +0.7 94 -3 -3 1026.1 1025.0
12 16.12 В 5 20 км 10/10 420 м
[St]
+2.0 +1.0 93 -4 -4 1026.3 1025.1
15 16.12 В 4 1000 м дымка 10/10 330 м
[St]
+1.2 +0.9 98 -4 -4 1027.6 1026.4 +2.5
18 16.12 В 4 1000 м дымка {туман} 10/10 300 м
[St]
+1.3 +1.0 98 -4 -4 1027.0 1025.8
21 16.12 В 3 20 км 10/10 450 м
[St]
+1.6 -0.7 85 -3 -3 1028.3 1027.1
00 17.12 В 4 4000 м слабый снег 10/0 420 м
[As op]
-0.1 -1.5 90 -6 -6 1027.6 1026.4
03 17.12 В 4 20 км {снег} 10/10 400 м
[St]
+0.8 -0.3 92 -5 -5 1027.6 1026.4 -0.2 0.0
06 17.12 В 5 20 км {снег} 10/10 420 м
[St]
-0.2 -2.0 88 -6 -6 1028.1 1027.0 -0.2

 

Местоположение метеостанции Малые Дербеты (Калмыкия, Россия): широта 47.93 долгота 44.70 высота над уровнем моря 9 м.

В архиве по умолчанию представлена погода в Малых Дербетах за последнюю неделю. Архивные данные за месяц целиком и за предыдущие месяцы, начиная с января 2011 года, Вы можете получить, выбрав интересующий диапазон дат из раскрывающегося списка и нажав кнопку "Ввод!".

Внимание! Время в таблицах - всемирное. Для получения местного времени необходимо прибавить поправку, которая в Малых Дербетах равна 3 ч.

Смотрите также архив погоды в соседних городах и на ближайших метеорологических станциях:

Погода в Кетченерах (Калмыкия, Россия) (69 км)
Погода в Волгограде город (Волгоградская область, Россия) (84 км)
Погода в Волгограде (Волгоградская область, Россия) (98 км)
Погода в Черный Яр (Астраханская область, Россия) (107 км)
Погода в Котельниково (Волгоградская область, Россия) (121 км)
Погода в Калаче-на-Дону (Волгоградская область, Россия) (123 км)
Погода в Нижнем Чире (Волгоградская область, Россия) (125 км)
Погода в Юсте (Калмыкия, Россия) (151 км)
Погода в Верхнем Баскунчаке (Астраханская область, Россия) (154 км)
Погода в Иловле (Волгоградская область, Россия) (161 км)

Пояснения к столбцам:

Ветер - указаны скорость ветра в м/с - средняя за 10 мин, порывы в срок и между сроками (в фигурных скобках) и направление, откуда дует ветер: С - северный, СВ - северо-восточный, В - восточный, ЮВ - юго-восточный, Ю - южный, ЮЗ - юго-западный, З - западный, СЗ - северо-западный.
Видимость - горизонтальная дальность видимости в метрах или километрах. При видимости от 1 до 10 км при отсутствии осадков обычно наблюдается дымка, при ухудшении видимости до 1 км и менее - туман. В сухую погоду видимость может ухудшаться дымом, пылью или мглою.
Явления - указаны атмосферные явления, наблюдавшиеся в срок или в последний час перед сроком; фигурными скобками обозначены явления, наблюдавшиеся между сроками (за 1-3 часа до срока); квадратными скобками обозначены град или гололедные отложения с указанием их диаметра в мм.
Облачность - указаны через наклонную черту общая и нижняя облачность в баллах и высота нижней границы облаков в метрах; квадратными скобками обозначены формы облаков: Ci - перистые, Cs - перисто-слоистые, Cc - перисто-кучевые, Ac - высококучевые, As - высокослоистые, Sc - слоисто-кучевые, Ns - слоисто-дождевые, Cu - кучевые, Cb - кучево-дождевые. Подробнее классификацию облаков см. в Атласе облаков (PDF).
T - Температура воздуха - температура, измеренная на высоте 2 м над землей.
Td - Температура точки росы - температура, при понижении до которой содержащийся в воздухе водяной пар достигнет насыщения.
f - Относительная влажность воздуха - влажноcть воздуха, измеренная на высоте 2 м над землей.
Te - Эффективная температура - температура, которую ощущает одетый по сезону человек в тени. Характеристика душности погоды. При расчете учитывается влияние влажности воздуха и скорости ветра на теплоощущения человека.
Tes - Эффективная температура на солнце - температура, которую ощущает человек, с поправкой на солнечный нагрев. Характеристика знойности погоды. Зависит от высоты солнца над горизонтом, облачности и скорости ветра. Ночью, в пасмурную погоду, а также при ветре 12 м/с и более поправка равна нулю.
P - Атмосферное давление - приведенное к уровню моря атмосферное давление.
Po - Атмосферное давление - измеренное на уровне метеостанции атмосферное давление.
Tmin - Минимальная температура - минимум температуры воздуха на высоте 2 м над землей.
Tmax - Максимальная температура - максимум температуры воздуха на высоте 2 м над землей.
R - Количество осадков - Количество выпавших осадков за период времени, мм. При наведении курсора мыши на число - период времени, за который выпало указанное количество осадков.
R24 - Количество осадков - Количество выпавших осадков за 24 часа, мм.
S - Снежный покров - Высота снежного покрова, см. При наведении курсора мыши на число - состояние снежного покрова и степень покрытия местности в баллах.